Time,TemperatureF,DewpointF,PressureIn,WindDirection,WindDirectionDegrees,WindSpeedMPH,WindSpeedGustMPH,Humidity,HourlyPrecipIn,Conditions,Clouds,dailyrainin,SoftwareType,DateUTC
2013-07-24 00:01:00,62.7,47.7,29.91,NE,45,7.6,7.6,58,0.00,,---,0.00,VWS V14.01,2013-07-24 04:01:00,
2013-07-24 00:02:00,62.7,47.7,29.91,North,0,0.0,7.6,58,0.00,,---,0.00,VWS V14.01,2013-07-24 04:02:00,
2013-07-24 00:03:00,62.6,47.6,29.91,North,0,0.0,0.0,58,0.00,,---,0.00,VWS V14.01,2013-07-24 04:03:00,
2013-07-24 00:08:00,62.7,47.7,29.91,NE,45,4.2,4.2,58,0.00,,---,0.00,VWS V14.01,2013-07-24 04:08:00,
2013-07-24 00:13:00,62.7,47.3,29.91,NE,45,2.4,2.4,57,0.00,,---,0.00,VWS V14.01,2013-07-24 04:13:00,
2013-07-24 00:18:00,62.6,47.2,29.91,NNE,22,8.7,8.7,57,0.00,,---,0.00,VWS V14.01,2013-07-24 04:18:00,
2013-07-24 00:23:00,62.4,46.5,29.92,WNW,292,2.6,2.6,56,0.00,,---,0.00,VWS V14.01,2013-07-24 04:23:00,
2013-07-24 00:28:00,62.0,46.6,29.92,NNW,338,2.4,2.6,57,0.00,,---,0.00,VWS V14.01,2013-07-24 04:28:00,
2013-07-24 00:33:00,61.8,46.4,29.92,NNW,338,2.9,2.9,57,0.00,,---,0.00,VWS V14.01,2013-07-24 04:33:00,
2013-07-24 00:38:00,61.8,46.9,29.92,NNE,22,2.9,2.9,58,0.00,,---,0.00,VWS V14.01,2013-07-24 04:38:00,
2013-07-24 00:43:00,61.8,46.4,29.92,NE,45,0.0,0.8,57,0.00,,---,0.00,VWS V14.01,2013-07-24 04:43:00,
2013-07-24 00:48:00,61.8,46.4,29.92,NNW,338,0.0,0.0,57,0.00,,---,0.00,VWS V14.01,2013-07-24 04:48:00,
2013-07-24 00:53:00,62.0,46.6,29.92,WSW,248,0.0,0.0,57,0.00,,---,0.00,VWS V14.01,2013-07-24 04:53:00,
2013-07-24 00:58:00,61.7,46.3,29.92,NNE,22,0.0,0.0,57,0.00,,---,0.00,VWS V14.01,2013-07-24 04:58:00,
2013-07-24 01:03:00,61.5,46.1,29.92,NNE,22,0.0,0.0,57,0.00,,---,0.00,VWS V14.01,2013-07-24 05:03:00,
2013-07-24 01:08:00,61.5,46.6,29.93,NNW,338,0.0,0.0,58,0.00,,---,0.00,VWS V14.01,2013-07-24 05:08:00,
2013-07-24 01:13:00,61.3,46.4,29.93,NNE,22,0.0,2.0,58,0.00,,---,0.00,VWS V14.01,2013-07-24 05:13:00,
2013-07-24 01:18:00,61.3,46.4,29.93,NNW,338,0.0,0.0,58,0.00,,---,0.00,VWS V14.01,2013-07-24 05:18:00,
2013-07-24 01:23:00,61.1,46.2,29.93,NNW,338,6.4,6.4,58,0.00,,---,0.00,VWS V14.01,2013-07-24 05:23:00,
2013-07-24 01:28:00,60.6,45.8,29.93,WNW,292,0.0,0.0,58,0.00,,---,0.00,VWS V14.01,2013-07-24 05:28:00,
2013-07-24 01:33:00,60.4,46.0,29.93,NW,315,0.0,0.0,59,0.00,,---,0.00,VWS V14.01,2013-07-24 05:33:00,
2013-07-24 01:38:00,60.0,45.7,29.93,North,0,0.0,0.0,59,0.00,,---,0.00,VWS V14.01,2013-07-24 05:38:00,
2013-07-24 01:43:00,59.7,45.4,29.93,NW,315,0.0,0.0,59,0.00,,---,0.00,VWS V14.01,2013-07-24 05:43:00,
2013-07-24 01:48:00,59.5,45.2,29.93,NNW,338,0.0,0.0,59,0.00,,---,0.00,VWS V14.01,2013-07-24 05:48:00,
2013-07-24 01:53:00,59.1,45.2,29.93,NW,315,0.0,0.0,60,0.00,,---,0.00,VWS V14.01,2013-07-24 05:53:00,
2013-07-24 01:58:00,58.8,45.0,29.93,NW,315,0.0,0.0,60,0.00,,---,0.00,VWS V14.01,2013-07-24 05:58:00,
2013-07-24 02:04:00,58.8,-10.6,29.94,NW,315,0.0,0.0,60,0.00,,---,0.00,VWS V14.01,2013-07-24 06:04:00,
2013-07-24 02:09:00,58.8,-10.6,29.94,NW,315,0.0,0.0,60,0.00,,---,0.00,VWS V14.01,2013-07-24 06:09:00,
2013-07-24 02:14:00,57.7,43.9,29.94,NW,315,0.0,0.0,60,0.00,,---,0.00,VWS V14.01,2013-07-24 06:14:00,
2013-07-24 02:19:00,57.3,44.8,29.94,NNW,338,0.0,0.0,63,0.00,,---,0.00,VWS V14.01,2013-07-24 06:19:00,
2013-07-24 02:24:00,56.8,44.3,29.94,NW,315,0.0,0.0,63,0.00,,---,0.00,VWS V14.01,2013-07-24 06:24:00,
2013-07-24 02:29:00,56.8,44.8,29.93,NW,315,0.0,0.0,64,0.00,,---,0.00,VWS V14.01,2013-07-24 06:29:00,
2013-07-24 02:34:00,56.4,44.4,29.93,NW,315,0.0,0.0,64,0.00,,---,0.00,VWS V14.01,2013-07-24 06:34:00,
2013-07-24 02:39:00,56.3,44.7,29.94,NW,315,0.0,0.0,65,0.00,,---,0.00,VWS V14.01,2013-07-24 06:39:00,
2013-07-24 02:44:00,56.1,44.5,29.94,NW,315,0.0,0.0,65,0.00,,---,0.00,VWS V14.01,2013-07-24 06:44:00,
2013-07-24 02:49:00,55.9,44.3,29.93,NW,315,0.0,0.0,65,0.00,,---,0.00,VWS V14.01,2013-07-24 06:49:00,
2013-07-24 02:54:00,55.7,44.5,29.93,WSW,248,0.0,0.0,66,0.00,,---,0.00,VWS V14.01,2013-07-24 06:54:00,
2013-07-24 02:59:00,55.5,44.3,29.93,West,270,0.0,0.0,66,0.00,,---,0.00,VWS V14.01,2013-07-24 06:59:00,
2013-07-24 03:04:00,55.5,-8.6,29.93,West,270,0.0,0.0,66,0.00,,---,0.00,VWS V14.01,2013-07-24 07:04:00,
2013-07-24 03:09:00,55.5,-8.6,29.93,West,270,0.0,0.0,66,0.00,,---,0.00,VWS V14.01,2013-07-24 07:09:00,
2013-07-24 03:14:00,55.5,-8.6,29.93,West,270,0.0,0.0,66,0.00,,---,0.00,VWS V14.01,2013-07-24 07:14:00,
2013-07-24 03:19:00,55.2,44.5,29.94,NW,315,0.0,0.0,67,0.00,,---,0.00,VWS V14.01,2013-07-24 07:19:00,
2013-07-24 03:24:00,55.0,44.3,29.94,NW,315,0.0,0.0,67,0.00,,---,0.00,VWS V14.01,2013-07-24 07:24:00,
2013-07-24 03:29:00,54.8,44.1,29.93,NW,315,0.0,0.0,67,0.00,,---,0.00,VWS V14.01,2013-07-24 07:29:00,
2013-07-24 03:34:00,54.6,44.3,29.94,NW,315,0.0,0.0,68,0.00,,---,0.00,VWS V14.01,2013-07-24 07:34:00,
2013-07-24 03:39:00,54.5,44.2,29.94,NW,315,0.0,0.0,68,0.00,,---,0.00,VWS V14.01,2013-07-24 07:39:00,
2013-07-24 03:44:00,54.3,44.0,29.94,NW,315,0.0,0.0,68,0.00,,---,0.00,VWS V14.01,2013-07-24 07:44:00,
2013-07-24 03:49:00,54.3,44.0,29.93,NW,315,0.0,0.0,68,0.00,,---,0.00,VWS V14.01,2013-07-24 07:49:00,
2013-07-24 03:54:00,54.3,44.0,29.94,NNW,338,0.0,0.0,68,0.00,,---,0.00,VWS V14.01,2013-07-24 07:54:00,
2013-07-24 03:59:00,54.1,44.2,29.94,NW,315,0.0,0.0,69,0.00,,---,0.00,VWS V14.01,2013-07-24 07:59:00,
2013-07-24 04:05:00,54.1,-7.7,29.94,NW,315,0.0,0.0,69,0.00,,---,0.00,VWS V14.01,2013-07-24 08:05:00,
2013-07-24 04:11:00,54.1,44.2,29.94,NW,315,0.0,0.0,69,0.00,,---,0.00,VWS V14.01,2013-07-24 08:11:00,
2013-07-24 04:16:00,53.7,44.2,29.94,NW,315,0.0,0.0,70,0.00,,---,0.00,VWS V14.01,2013-07-24 08:16:00,
2013-07-24 04:21:00,53.7,44.2,29.93,West,270,0.0,0.0,70,0.00,,---,0.00,VWS V14.01,2013-07-24 08:21:00,
2013-07-24 04:26:00,53.4,43.9,29.93,NW,315,0.0,0.0,70,0.00,,---,0.00,VWS V14.01,2013-07-24 08:26:00,
2013-07-24 04:31:00,53.4,44.2,29.94,NW,315,0.0,0.0,71,0.00,,---,0.00,VWS V14.01,2013-07-24 08:31:00,
2013-07-24 04:36:00,53.4,44.2,29.94,NNW,338,0.0,0.0,71,0.00,,---,0.00,VWS V14.01,2013-07-24 08:36:00,
2013-07-24 04:41:00,53.2,44.0,29.93,NNW,338,0.0,0.0,71,0.00,,---,0.00,VWS V14.01,2013-07-24 08:41:00,
2013-07-24 04:46:00,53.4,44.2,29.94,NW,315,0.0,0.0,71,0.00,,---,0.00,VWS V14.01,2013-07-24 08:46:00,
2013-07-24 04:51:00,53.2,44.0,29.94,WNW,292,0.0,0.0,71,0.00,,---,0.00,VWS V14.01,2013-07-24 08:51:00,
2013-07-24 04:56:00,53.2,44.0,29.94,NW,315,0.0,0.0,71,0.00,,---,0.00,VWS V14.01,2013-07-24 08:56:00,
2013-07-24 05:01:00,53.2,44.0,29.94,WNW,292,0.0,0.0,71,0.00,,---,0.00,VWS V14.01,2013-07-24 09:01:00,
2013-07-24 05:06:00,53.2,44.0,29.95,NW,315,0.0,0.0,71,0.00,,---,0.00,VWS V14.01,2013-07-24 09:06:00,
2013-07-24 05:11:00,53.2,44.0,29.95,North,0,0.0,0.0,71,0.00,,---,0.00,VWS V14.01,2013-07-24 09:11:00,
2013-07-24 05:16:00,53.2,44.0,29.95,NNW,338,0.0,0.0,71,0.00,,---,0.00,VWS V14.01,2013-07-24 09:16:00,
2013-07-24 05:21:00,53.2,44.0,29.95,NNW,338,0.0,0.0,71,0.00,,---,0.00,VWS V14.01,2013-07-24 09:21:00,
2013-07-24 05:26:00,53.2,44.0,29.96,NW,315,0.0,0.0,71,0.00,,---,0.00,VWS V14.01,2013-07-24 09:26:00,
2013-07-24 05:31:00,53.0,43.9,29.96,NW,315,0.0,0.0,71,0.00,,---,0.00,VWS V14.01,2013-07-24 09:31:00,
2013-07-24 05:36:00,52.8,44.0,29.96,NNW,338,0.0,0.0,72,0.00,,---,0.00,VWS V14.01,2013-07-24 09:36:00,
2013-07-24 05:41:00,53.2,44.4,29.95,WNW,292,0.0,0.0,72,0.00,,---,0.00,VWS V14.01,2013-07-24 09:41:00,
2013-07-24 05:46:00,53.2,44.4,29.96,ENE,68,0.0,0.0,72,0.00,,---,0.00,VWS V14.01,2013-07-24 09:46:00,
2013-07-24 05:52:00,53.2,44.0,29.96,NNE,22,0.0,0.0,71,0.00,,---,0.00,VWS V14.01,2013-07-24 09:52:00,
2013-07-24 05:57:00,53.2,44.0,29.96,NW,315,0.0,0.0,71,0.00,,---,0.00,VWS V14.01,2013-07-24 09:57:00,
2013-07-24 06:02:00,53.0,44.2,29.96,NNW,338,0.0,0.0,72,0.00,,---,0.00,VWS V14.01,2013-07-24 10:02:00,
2013-07-24 06:07:00,52.5,44.1,29.97,NNW,338,0.0,0.0,73,0.00,,---,0.00,VWS V14.01,2013-07-24 10:07:00,
2013-07-24 06:12:00,52.3,43.9,29.97,NW,315,0.0,0.0,73,0.00,,---,0.00,VWS V14.01,2013-07-24 10:12:00,
2013-07-24 06:17:00,52.3,44.3,29.97,NW,315,0.0,0.0,74,0.00,,---,0.00,VWS V14.01,2013-07-24 10:17:00,
2013-07-24 06:22:00,52.1,44.1,29.98,NE,45,0.0,0.0,74,0.02,,---,0.02,VWS V14.01,2013-07-24 10:22:00,
2013-07-24 06:27:00,52.1,44.4,29.97,WNW,292,0.0,0.0,75,0.04,,---,0.04,VWS V14.01,2013-07-24 10:27:00,
2013-07-24 06:32:00,52.1,44.4,29.97,NNE,22,0.0,0.0,75,0.06,,---,0.06,VWS V14.01,2013-07-24 10:32:00,
2013-07-24 06:37:00,52.1,44.4,29.97,NNW,338,0.0,0.0,75,0.08,,---,0.08,VWS V14.01,2013-07-24 10:37:00,
2013-07-24 06:42:00,52.1,44.4,29.97,West,270,0.0,0.0,75,0.08,,---,0.08,VWS V14.01,2013-07-24 10:42:00,
2013-07-24 06:47:00,52.1,44.8,29.99,NE,45,0.0,0.0,76,0.08,,---,0.08,VWS V14.01,2013-07-24 10:47:00,
2013-07-24 06:52:00,52.1,44.8,29.99,WNW,292,0.0,0.0,76,0.08,,---,0.08,VWS V14.01,2013-07-24 10:52:00,
2013-07-24 06:57:00,52.3,45.0,29.98,NNE,22,0.0,0.0,76,0.08,,---,0.08,VWS V14.01,2013-07-24 10:57:00,
2013-07-24 07:02:00,52.8,45.5,29.98,West,270,0.0,0.0,76,0.08,,---,0.08,VWS V14.01,2013-07-24 11:02:00,
2013-07-24 07:07:00,53.0,45.7,29.98,NNE,22,0.0,0.0,76,0.08,,---,0.08,VWS V14.01,2013-07-24 11:07:00,
2013-07-24 07:12:00,53.2,45.8,29.99,NNE,22,0.0,0.0,76,0.08,,---,0.08,VWS V14.01,2013-07-24 11:12:00,
2013-07-24 07:17:00,52.8,45.5,30.00,NNE,22,0.0,0.0,76,0.08,,---,0.08,VWS V14.01,2013-07-24 11:17:00,
2013-07-24 07:22:00,52.8,45.5,30.00,North,0,0.0,0.0,76,0.08,,---,0.08,VWS V14.01,2013-07-24 11:22:00,
2013-07-24 07:27:00,52.8,45.5,30.00,NE,45,0.0,0.0,76,0.04,,---,0.08,VWS V14.01,2013-07-24 11:27:00,
2013-07-24 07:32:00,53.4,46.0,30.00,NE,45,0.0,0.0,76,0.02,,---,0.08,VWS V14.01,2013-07-24 11:32:00,
2013-07-24 07:37:00,53.4,46.0,30.00,NE,45,0.0,0.0,76,0.00,,---,0.08,VWS V14.01,2013-07-24 11:37:00,
2013-07-24 07:42:00,53.9,46.5,29.99,NNE,22,0.0,0.0,76,0.00,,---,0.08,VWS V14.01,2013-07-24 11:42:00,
2013-07-24 07:47:00,54.3,46.6,29.99,West,270,0.0,0.0,75,0.00,,---,0.08,VWS V14.01,2013-07-24 11:47:00,
2013-07-24 07:52:00,54.6,46.8,30.00,NNE,22,0.0,0.0,75,0.00,,---,0.08,VWS V14.01,2013-07-24 11:52:00,
2013-07-24 07:57:00,55.0,47.2,30.00,NE,45,0.0,0.0,75,0.00,,---,0.08,VWS V14.01,2013-07-24 11:57:00,
2013-07-24 08:02:00,55.2,47.4,30.00,West,270,0.0,0.0,75,0.00,,---,0.08,VWS V14.01,2013-07-24 12:02:00,
2013-07-24 08:07:00,55.5,47.4,30.00,NNW,338,0.0,0.0,74,0.00,,---,0.08,VWS V14.01,2013-07-24 12:07:00,
2013-07-24 08:12:00,55.5,47.0,30.00,NE,45,0.0,0.0,73,0.00,,---,0.08,VWS V14.01,2013-07-24 12:12:00,
2013-07-24 08:17:00,55.9,47.4,30.00,NNE,22,0.0,0.0,73,0.00,,---,0.08,VWS V14.01,2013-07-24 12:17:00,
2013-07-24 08:22:00,55.9,47.4,30.00,ENE,68,0.0,0.0,73,0.00,,---,0.08,VWS V14.01,2013-07-24 12:22:00,
2013-07-24 08:28:00,56.4,47.9,30.00,NE,45,0.0,0.0,73,0.00,,---,0.08,VWS V14.01,2013-07-24 12:28:00,
2013-07-24 08:33:00,56.4,47.9,30.01,NNE,22,0.0,0.0,73,0.00,,---,0.08,VWS V14.01,2013-07-24 12:33:00,
2013-07-24 08:38:00,56.8,48.2,30.00,NE,45,0.0,0.0,73,0.00,,---,0.08,VWS V14.01,2013-07-24 12:38:00,
2013-07-24 08:43:00,57.0,48.1,30.01,NE,45,0.0,0.0,72,0.00,,---,0.08,VWS V14.01,2013-07-24 12:43:00,
2013-07-24 08:48:00,57.3,48.4,30.01,NE,45,0.0,0.0,72,0.00,,---,0.08,VWS V14.01,2013-07-24 12:48:00,
2013-07-24 08:53:00,57.7,48.8,30.01,NE,45,0.0,0.0,72,0.00,,---,0.08,VWS V14.01,2013-07-24 12:53:00,
2013-07-24 08:58:00,57.7,48.4,30.02,NNE,22,0.0,0.0,71,0.00,,---,0.08,VWS V14.01,2013-07-24 12:58:00,
2013-07-24 09:03:00,57.7,48.4,30.02,WNW,292,0.0,0.0,71,0.00,,---,0.08,VWS V14.01,2013-07-24 13:03:00,
2013-07-24 09:08:00,57.9,48.6,30.02,NW,315,0.0,0.0,71,0.00,,---,0.08,VWS V14.01,2013-07-24 13:08:00,
2013-07-24 09:13:00,57.9,48.6,30.02,ENE,68,8.7,8.7,71,0.00,,---,0.08,VWS V14.01,2013-07-24 13:13:00,
2013-07-24 09:18:00,58.1,48.8,30.02,North,0,0.0,0.0,71,0.00,,---,0.08,VWS V14.01,2013-07-24 13:18:00,
2013-07-24 09:23:00,58.2,48.8,30.02,NNE,22,0.0,0.0,71,0.00,,---,0.08,VWS V14.01,2013-07-24 13:23:00,
2013-07-24 09:28:00,58.6,49.2,30.02,NW,315,0.0,0.0,71,0.00,,---,0.08,VWS V14.01,2013-07-24 13:28:00,
2013-07-24 09:33:00,58.8,49.0,30.02,NNE,22,0.0,0.0,70,0.00,,---,0.08,VWS V14.01,2013-07-24 13:33:00,
2013-07-24 09:38:00,58.8,49.0,30.02,ENE,68,0.0,0.0,70,0.00,,---,0.08,VWS V14.01,2013-07-24 13:38:00,
2013-07-24 09:43:00,59.0,49.2,30.03,NE,45,6.9,6.9,70,0.00,,---,0.08,VWS V14.01,2013-07-24 13:43:00,
2013-07-24 09:48:00,59.5,49.3,30.02,ENE,68,0.0,0.0,69,0.00,,---,0.08,VWS V14.01,2013-07-24 13:48:00,
2013-07-24 09:53:00,59.7,49.5,30.03,NE,45,0.0,0.0,69,0.00,,---,0.08,VWS V14.01,2013-07-24 13:53:00,
2013-07-24 09:58:00,59.9,49.7,30.03,WSW,248,0.0,0.0,69,0.00,,---,0.08,VWS V14.01,2013-07-24 13:58:00,
2013-07-24 10:03:00,60.0,49.8,30.03,NNE,22,1.7,1.7,69,0.00,,---,0.08,VWS V14.01,2013-07-24 14:03:00,
2013-07-24 10:08:00,60.4,50.2,30.03,NNW,338,0.0,0.0,69,0.00,,---,0.08,VWS V14.01,2013-07-24 14:08:00,
2013-07-24 10:13:00,60.4,50.2,30.03,ENE,68,0.0,0.0,69,0.00,,---,0.08,VWS V14.01,2013-07-24 14:13:00,
2013-07-24 10:18:00,60.6,50.4,30.03,NE,45,0.0,0.0,69,0.00,,---,0.08,VWS V14.01,2013-07-24 14:18:00,
2013-07-24 10:23:00,60.6,50.4,30.03,ESE,112,0.0,0.0,69,0.00,,---,0.08,VWS V14.01,2013-07-24 14:23:00,
2013-07-24 10:28:00,61.1,50.5,30.03,ESE,112,0.0,1.5,68,0.00,,---,0.08,VWS V14.01,2013-07-24 14:28:00,
2013-07-24 10:33:00,61.3,50.7,30.03,NNW,338,0.0,0.0,68,0.00,,---,0.08,VWS V14.01,2013-07-24 14:33:00,
2013-07-24 10:38:00,61.5,50.8,30.03,NE,45,0.0,0.0,68,0.00,,---,0.08,VWS V14.01,2013-07-24 14:38:00,
2013-07-24 10:43:00,61.5,50.8,30.03,NE,45,0.0,1.1,68,0.00,,---,0.08,VWS V14.01,2013-07-24 14:43:00,
2013-07-24 10:48:00,61.8,51.1,30.03,NE,45,0.0,0.0,68,0.00,,---,0.08,VWS V14.01,2013-07-24 14:48:00,
2013-07-24 10:53:00,62.0,51.3,30.03,East,90,0.0,2.6,68,0.00,,---,0.08,VWS V14.01,2013-07-24 14:53:00,
2013-07-24 10:58:00,62.4,51.7,30.04,NNE,22,0.0,5.8,68,0.00,,---,0.08,VWS V14.01,2013-07-24 14:58:00,
2013-07-24 11:03:00,62.7,52.0,30.04,ENE,68,0.8,0.8,68,0.00,,---,0.08,VWS V14.01,2013-07-24 15:03:00,
2013-07-24 11:08:00,62.9,52.2,30.03,NE,45,0.0,1.3,68,0.00,,---,0.08,VWS V14.01,2013-07-24 15:08:00,
2013-07-24 11:13:00,63.5,52.4,30.04,NNE,22,0.0,1.5,67,0.00,,---,0.08,VWS V14.01,2013-07-24 15:13:00,
2013-07-24 11:18:00,63.6,52.5,30.03,NE,45,4.6,4.6,67,0.00,,---,0.08,VWS V14.01,2013-07-24 15:18:00,
2013-07-24 11:23:00,64.5,52.9,30.03,NE,45,0.0,0.0,66,0.00,,---,0.08,VWS V14.01,2013-07-24 15:23:00,
2013-07-24 11:28:00,65.1,53.5,30.03,SE,135,0.0,7.8,66,0.00,,---,0.08,VWS V14.01,2013-07-24 15:28:00,
2013-07-24 11:33:00,65.8,53.7,30.04,NE,45,4.4,4.4,65,0.00,,---,0.08,VWS V14.01,2013-07-24 15:33:00,
2013-07-24 11:38:00,66.0,53.5,30.04,ESE,112,2.4,2.4,64,0.00,,---,0.08,VWS V14.01,2013-07-24 15:38:00,
2013-07-24 11:44:00,66.0,53.1,30.03,North,0,2.9,2.9,63,0.00,,---,0.08,VWS V14.01,2013-07-24 15:44:00,
2013-07-24 11:49:00,66.3,52.9,30.04,NNE,22,7.8,7.8,62,0.00,,---,0.08,VWS V14.01,2013-07-24 15:49:00,
2013-07-24 11:54:00,66.5,53.1,30.03,ENE,68,4.0,4.0,62,0.00,,---,0.08,VWS V14.01,2013-07-24 15:54:00,
2013-07-24 11:59:00,66.7,52.8,30.04,ENE,68,2.9,2.9,61,0.00,,---,0.08,VWS V14.01,2013-07-24 15:59:00,
2013-07-24 12:04:00,66.9,53.0,30.03,ENE,68,1.7,2.0,61,0.00,,---,0.08,VWS V14.01,2013-07-24 16:04:00,
2013-07-24 12:09:00,67.1,53.2,30.04,North,0,0.0,0.0,61,0.00,,---,0.08,VWS V14.01,2013-07-24 16:09:00,
2013-07-24 12:14:00,67.2,52.9,30.04,ENE,68,0.0,0.0,60,0.00,,---,0.08,VWS V14.01,2013-07-24 16:14:00,
2013-07-24 12:19:00,67.1,52.3,30.04,NE,45,5.3,5.3,59,0.00,,---,0.08,VWS V14.01,2013-07-24 16:19:00,
2013-07-24 12:24:00,66.9,52.1,30.04,ENE,68,0.0,0.0,59,0.00,,---,0.08,VWS V14.01,2013-07-24 16:24:00,
2013-07-24 12:29:00,66.9,52.6,30.04,ENE,68,0.0,0.0,60,0.00,,---,0.08,VWS V14.01,2013-07-24 16:29:00,
2013-07-24 12:34:00,66.7,51.9,30.04,NW,315,4.6,4.6,59,0.00,,---,0.08,VWS V14.01,2013-07-24 16:34:00,
2013-07-24 12:39:00,66.5,51.8,30.04,NNE,22,0.0,0.0,59,0.00,,---,0.08,VWS V14.01,2013-07-24 16:39:00,
2013-07-24 12:44:00,66.7,51.9,30.04,ESE,112,0.0,0.0,59,0.00,,---,0.08,VWS V14.01,2013-07-24 16:44:00,
2013-07-24 12:49:00,66.7,51.9,30.04,NE,45,0.0,5.8,59,0.00,,---,0.08,VWS V14.01,2013-07-24 16:49:00,
2013-07-24 12:54:00,66.9,51.7,30.04,East,90,6.2,6.2,58,0.00,,---,0.08,VWS V14.01,2013-07-24 16:54:00,
2013-07-24 12:59:00,67.1,51.8,30.04,ENE,68,2.6,2.6,58,0.00,,---,0.08,VWS V14.01,2013-07-24 16:59:00,
2013-07-24 13:04:00,67.2,51.9,30.04,ENE,68,0.0,0.0,58,0.00,,---,0.08,VWS V14.01,2013-07-24 17:04:00,
2013-07-24 13:09:00,67.4,51.7,30.04,East,90,1.5,1.5,57,0.00,,---,0.08,VWS V14.01,2013-07-24 17:09:00,
2013-07-24 13:14:00,67.6,51.8,30.03,ENE,68,0.2,0.2,57,0.00,,---,0.08,VWS V14.01,2013-07-24 17:14:00,
2013-07-24 13:19:00,67.6,51.8,30.04,NNE,22,0.0,4.9,57,0.00,,---,0.08,VWS V14.01,2013-07-24 17:19:00,
2013-07-24 13:24:00,67.8,52.0,30.03,NE,45,7.1,7.1,57,0.00,,---,0.08,VWS V14.01,2013-07-24 17:24:00,
2013-07-24 13:29:00,68.1,52.3,30.04,NE,45,6.2,6.2,57,0.00,,---,0.08,VWS V14.01,2013-07-24 17:29:00,
2013-07-24 13:34:00,68.3,52.0,30.04,North,0,0.0,7.3,56,0.00,,---,0.08,VWS V14.01,2013-07-24 17:34:00,
2013-07-24 13:39:00,68.3,51.5,30.04,NE,45,0.0,0.0,55,0.00,,---,0.08,VWS V14.01,2013-07-24 17:39:00,
2013-07-24 13:44:00,68.3,52.0,30.03,NE,45,1.3,1.3,56,0.00,,---,0.08,VWS V14.01,2013-07-24 17:44:00,
2013-07-24 13:50:00,68.7,52.4,30.04,NE,45,3.1,3.1,56,0.00,,---,0.08,VWS V14.01,2013-07-24 17:50:00,
2013-07-24 13:55:00,68.7,51.9,30.04,NE,45,0.0,4.6,55,0.00,,---,0.08,VWS V14.01,2013-07-24 17:55:00,
2013-07-24 14:00:00,69.0,52.7,30.04,East,90,0.4,5.5,56,0.00,,---,0.08,VWS V14.01,2013-07-24 18:00:00,
2013-07-24 14:05:00,69.0,52.2,30.04,ENE,68,4.4,4.4,55,0.00,,---,0.08,VWS V14.01,2013-07-24 18:05:00,
2013-07-24 14:10:00,69.2,52.4,30.04,NE,45,2.4,2.4,55,0.00,,---,0.08,VWS V14.01,2013-07-24 18:10:00,
2013-07-24 14:15:00,69.0,51.7,30.04,ENE,68,0.0,2.0,54,0.00,,---,0.08,VWS V14.01,2013-07-24 18:15:00,
2013-07-24 14:20:00,68.9,51.6,30.04,North,0,0.0,0.0,54,0.00,,---,0.08,VWS V14.01,2013-07-24 18:20:00,
2013-07-24 14:25:00,68.9,51.6,30.04,East,90,7.1,7.1,54,0.00,,---,0.08,VWS V14.01,2013-07-24 18:25:00,
2013-07-24 14:30:00,69.0,51.7,30.04,East,90,0.0,0.0,54,0.00,,---,0.08,VWS V14.01,2013-07-24 18:30:00,
2013-07-24 14:36:00,69.2,51.4,30.04,NE,45,4.0,4.0,53,0.00,,---,0.08,VWS V14.01,2013-07-24 18:36:00,
2013-07-24 14:41:00,69.4,51.5,30.04,NNW,338,0.0,0.0,53,0.00,,---,0.08,VWS V14.01,2013-07-24 18:41:00,
2013-07-24 14:46:00,69.4,51.5,30.03,NE,45,8.0,8.0,53,0.00,,---,0.08,VWS V14.01,2013-07-24 18:46:00,
2013-07-24 14:51:00,69.4,51.5,30.03,NNE,22,4.6,4.6,53,0.00,,---,0.08,VWS V14.01,2013-07-24 18:51:00,
2013-07-24 14:56:00,69.4,51.5,30.03,ENE,68,0.0,0.0,53,0.00,,---,0.08,VWS V14.01,2013-07-24 18:56:00,
2013-07-24 15:01:00,69.6,51.7,30.03,NE,45,7.3,7.3,53,0.00,,---,0.08,VWS V14.01,2013-07-24 19:01:00,
2013-07-24 15:06:00,69.6,51.2,30.03,NE,45,0.0,5.3,52,0.00,,---,0.08,VWS V14.01,2013-07-24 19:06:00,
2013-07-24 15:11:00,69.9,51.5,30.03,ENE,68,4.2,4.2,52,0.00,,---,0.08,VWS V14.01,2013-07-24 19:11:00,
2013-07-24 15:16:00,70.1,51.7,30.03,ENE,68,0.0,0.0,52,0.00,,---,0.08,VWS V14.01,2013-07-24 19:16:00,
2013-07-24 15:22:00,70.5,51.5,30.03,NE,45,5.3,5.3,51,0.00,,---,0.08,VWS V14.01,2013-07-24 19:22:00,
2013-07-24 15:27:00,70.8,51.8,30.03,NE,45,7.1,7.1,51,0.00,,---,0.08,VWS V14.01,2013-07-24 19:27:00,
2013-07-24 15:32:00,70.8,51.3,30.03,NE,45,5.5,5.5,50,0.00,,---,0.08,VWS V14.01,2013-07-24 19:32:00,
2013-07-24 15:37:00,70.8,50.7,30.03,NNE,22,3.5,3.5,49,0.00,,---,0.08,VWS V14.01,2013-07-24 19:37:00,
2013-07-24 15:42:00,70.5,50.4,30.03,NE,45,4.4,4.4,49,0.00,,---,0.08,VWS V14.01,2013-07-24 19:42:00,
2013-07-24 15:47:00,70.3,50.8,30.03,NNE,22,0.0,0.4,50,0.00,,---,0.08,VWS V14.01,2013-07-24 19:47:00,
2013-07-24 15:53:00,70.1,50.1,30.03,ENE,68,8.2,8.2,49,0.00,,---,0.08,VWS V14.01,2013-07-24 19:53:00,
2013-07-24 15:58:00,69.9,49.3,30.03,ENE,68,0.0,5.5,48,0.00,,---,0.08,VWS V14.01,2013-07-24 19:58:00,
2013-07-24 16:03:00,69.9,49.9,30.03,East,90,0.0,0.0,49,0.00,,---,0.08,VWS V14.01,2013-07-24 20:03:00,
2013-07-24 16:08:00,69.6,49.1,30.02,ENE,68,0.0,0.0,48,0.00,,---,0.08,VWS V14.01,2013-07-24 20:08:00,
2013-07-24 16:13:00,69.6,49.1,30.03,ENE,68,0.8,2.9,48,0.00,,---,0.08,VWS V14.01,2013-07-24 20:13:00,
2013-07-24 16:18:00,69.6,49.1,30.03,NE,45,0.0,0.0,48,0.00,,---,0.08,VWS V14.01,2013-07-24 20:18:00,
2013-07-24 16:23:00,69.6,49.1,30.02,NE,45,2.0,2.0,48,0.00,,---,0.08,VWS V14.01,2013-07-24 20:23:00,
2013-07-24 16:28:00,69.6,49.1,30.02,NNE,22,6.0,6.0,48,0.00,,---,0.08,VWS V14.01,2013-07-24 20:28:00,
2013-07-24 16:33:00,69.6,49.1,30.02,NE,45,2.0,2.0,48,0.00,,---,0.08,VWS V14.01,2013-07-24 20:33:00,
2013-07-24 16:38:00,69.6,49.1,30.03,ESE,112,0.0,7.6,48,0.00,,---,0.08,VWS V14.01,2013-07-24 20:38:00,
2013-07-24 16:43:00,69.8,49.2,30.03,ENE,68,0.0,2.0,48,0.00,,---,0.08,VWS V14.01,2013-07-24 20:43:00,
2013-07-24 16:48:00,69.9,49.3,30.02,ESE,112,0.0,0.0,48,0.00,,---,0.08,VWS V14.01,2013-07-24 20:48:00,
2013-07-24 16:53:00,70.3,49.7,30.02,NE,45,0.0,0.0,48,0.00,,---,0.08,VWS V14.01,2013-07-24 20:53:00,
2013-07-24 16:58:00,70.5,49.3,30.02,NE,45,0.0,3.3,47,0.00,,---,0.08,VWS V14.01,2013-07-24 20:58:00,
2013-07-24 17:03:00,70.5,48.8,30.02,ENE,68,2.4,2.4,46,0.00,,---,0.08,VWS V14.01,2013-07-24 21:03:00,
2013-07-24 17:08:00,70.8,49.6,30.02,ESE,112,0.0,0.0,47,0.00,,---,0.08,VWS V14.01,2013-07-24 21:08:00,
2013-07-24 17:13:00,71.2,50.0,30.02,East,90,2.0,2.0,47,0.00,,---,0.08,VWS V14.01,2013-07-24 21:13:00,
2013-07-24 17:18:00,71.4,50.1,30.02,South,180,0.0,0.0,47,0.00,,---,0.08,VWS V14.01,2013-07-24 21:18:00,
2013-07-24 17:23:00,71.7,50.4,30.02,NNE,22,0.0,0.0,47,0.00,,---,0.08,VWS V14.01,2013-07-24 21:23:00,
2013-07-24 17:28:00,72.1,50.2,30.02,South,180,0.0,0.0,46,0.00,,---,0.08,VWS V14.01,2013-07-24 21:28:00,
2013-07-24 17:33:00,72.3,50.4,30.02,ENE,68,2.0,2.0,46,0.00,,---,0.08,VWS V14.01,2013-07-24 21:33:00,
2013-07-24 17:38:00,72.6,50.7,30.02,SSE,158,0.0,0.0,46,0.00,,---,0.08,VWS V14.01,2013-07-24 21:38:00,
2013-07-24 17:43:00,72.8,50.8,30.02,NE,45,0.0,0.0,46,0.00,,---,0.08,VWS V14.01,2013-07-24 21:43:00,
2013-07-24 17:48:00,73.2,51.2,30.02,East,90,5.1,5.1,46,0.00,,---,0.08,VWS V14.01,2013-07-24 21:48:00,
2013-07-24 17:53:00,74.1,52.0,30.02,NE,45,0.0,0.0,46,0.00,,---,0.08,VWS V14.01,2013-07-24 21:53:00,
2013-07-24 17:58:00,74.6,51.9,30.02,ENE,68,1.1,1.1,45,0.00,,---,0.08,VWS V14.01,2013-07-24 21:58:00,
2013-07-24 18:03:00,75.2,51.8,30.02,NE,45,2.2,2.2,44,0.00,,---,0.08,VWS V14.01,2013-07-24 22:03:00,
2013-07-24 18:08:00,75.3,51.9,30.02,NE,45,0.0,0.0,44,0.00,,---,0.08,VWS V14.01,2013-07-24 22:08:00,
2013-07-24 18:14:00,75.5,52.1,30.02,NE,45,1.5,1.5,44,0.00,,---,0.08,VWS V14.01,2013-07-24 22:14:00,
2013-07-24 18:19:00,75.7,52.3,30.02,NE,45,0.0,0.0,44,0.00,,---,0.08,VWS V14.01,2013-07-24 22:19:00,
2013-07-24 18:24:00,75.9,52.5,30.02,NE,45,0.0,0.0,44,0.00,,---,0.08,VWS V14.01,2013-07-24 22:24:00,
2013-07-24 18:29:00,76.8,53.3,30.02,ENE,68,0.0,0.0,44,0.00,,---,0.08,VWS V14.01,2013-07-24 22:29:00,
2013-07-24 18:34:00,77.3,53.1,30.02,NE,45,0.0,0.0,43,0.00,,---,0.08,VWS V14.01,2013-07-24 22:34:00,
2013-07-24 18:39:00,77.9,53.0,30.02,NE,45,0.6,0.6,42,0.00,,---,0.08,VWS V14.01,2013-07-24 22:39:00,
2013-07-24 18:44:00,78.4,53.4,30.02,NE,45,0.0,0.8,42,0.00,,---,0.08,VWS V14.01,2013-07-24 22:44:00,
2013-07-24 18:49:00,78.6,53.6,30.02,NE,45,0.6,4.2,42,0.00,,---,0.08,VWS V14.01,2013-07-24 22:49:00,
2013-07-24 18:55:00,79.3,54.2,30.02,NE,45,0.0,0.0,42,0.00,,---,0.08,VWS V14.01,2013-07-24 22:55:00,
2013-07-24 19:00:00,79.7,54.6,30.02,ENE,68,7.1,7.1,42,0.00,,---,0.08,VWS V14.01,2013-07-24 23:00:00,
2013-07-24 19:05:00,79.8,54.0,30.01,NE,45,0.0,0.0,41,0.00,,---,0.08,VWS V14.01,2013-07-24 23:05:00,
2013-07-24 19:10:00,79.7,53.9,30.01,WSW,248,0.0,4.9,41,0.00,,---,0.08,VWS V14.01,2013-07-24 23:10:00,
2013-07-24 19:15:00,79.5,53.8,30.01,WSW,248,0.0,0.0,41,0.00,,---,0.08,VWS V14.01,2013-07-24 23:15:00,
2013-07-24 19:20:00,79.3,52.9,30.02,WSW,248,0.0,0.0,40,0.00,,---,0.08,VWS V14.01,2013-07-24 23:20:00,
2013-07-24 19:25:00,78.4,52.8,30.02,WSW,248,0.0,0.0,41,0.00,,---,0.08,VWS V14.01,2013-07-24 23:25:00,
2013-07-24 19:30:00,77.7,52.8,30.01,WSW,248,0.6,0.6,42,0.00,,---,0.08,VWS V14.01,2013-07-24 23:30:00,
2013-07-24 19:35:00,77.1,52.3,30.02,WSW,248,0.0,0.0,42,0.00,,---,0.08,VWS V14.01,2013-07-24 23:35:00,
2013-07-24 19:40:00,76.1,51.4,30.02,ENE,68,0.0,0.0,42,0.00,,---,0.08,VWS V14.01,2013-07-24 23:40:00,
2013-07-24 19:45:00,75.5,51.5,30.02,NNE,22,0.0,0.0,43,0.00,,---,0.08,VWS V14.01,2013-07-24 23:45:00,
2013-07-24 19:50:00,74.8,50.8,30.02,NE,45,0.0,0.0,43,0.00,,---,0.08,VWS V14.01,2013-07-24 23:50:00,
2013-07-24 19:55:00,74.1,50.8,30.02,NNE,22,0.0,0.0,44,0.00,,---,0.08,VWS V14.01,2013-07-24 23:55:00,
2013-07-24 20:00:00,73.4,50.8,30.02,ENE,68,0.0,0.0,45,0.00,,---,0.08,VWS V14.01,2013-07-25 00:00:00,
2013-07-24 20:05:00,72.8,50.2,30.02,East,90,0.0,0.0,45,0.00,,---,0.08,VWS V14.01,2013-07-25 00:05:00,
2013-07-24 20:10:00,72.3,50.4,30.02,NE,45,0.0,0.0,46,0.00,,---,0.08,VWS V14.01,2013-07-25 00:10:00,
2013-07-24 20:15:00,71.7,49.8,30.02,East,90,0.8,0.8,46,0.00,,---,0.08,VWS V14.01,2013-07-25 00:15:00,
2013-07-24 20:20:00,71.4,49.6,30.02,NE,45,0.0,0.0,46,0.00,,---,0.08,VWS V14.01,2013-07-25 00:20:00,
2013-07-24 20:25:00,70.8,49.6,30.02,NE,45,0.0,0.0,47,0.00,,---,0.08,VWS V14.01,2013-07-25 00:25:00,
2013-07-24 20:30:00,70.5,49.3,30.02,ENE,68,0.0,0.0,47,0.00,,---,0.08,VWS V14.01,2013-07-25 00:30:00,
2013-07-24 20:35:00,70.3,49.7,30.02,NE,45,0.0,0.0,48,0.00,,---,0.08,VWS V14.01,2013-07-25 00:35:00,
2013-07-24 20:40:00,69.9,49.3,30.02,NE,45,0.0,0.0,48,0.00,,---,0.08,VWS V14.01,2013-07-25 00:40:00,
2013-07-24 20:45:00,69.6,49.1,30.02,NE,45,0.0,0.0,48,0.00,,---,0.08,VWS V14.01,2013-07-25 00:45:00,
2013-07-24 20:50:00,69.4,49.4,30.02,NE,45,0.0,0.0,49,0.00,,---,0.08,VWS V14.01,2013-07-25 00:50:00,
2013-07-24 20:55:00,69.0,49.1,30.02,NE,45,0.0,0.0,49,0.00,,---,0.08,VWS V14.01,2013-07-25 00:55:00,
2013-07-24 21:00:00,68.7,48.8,30.02,NE,45,0.0,0.0,49,0.00,,---,0.08,VWS V14.01,2013-07-25 01:00:00,
2013-07-24 21:05:00,68.5,49.2,30.03,NE,45,0.0,0.0,50,0.00,,---,0.08,VWS V14.01,2013-07-25 01:05:00,
2013-07-24 21:10:00,68.1,48.8,30.02,NE,45,0.0,0.0,50,0.00,,---,0.08,VWS V14.01,2013-07-25 01:10:00,
2013-07-24 21:15:00,67.8,49.0,30.02,ENE,68,0.0,0.0,51,0.00,,---,0.08,VWS V14.01,2013-07-25 01:15:00,
2013-07-24 21:20:00,67.8,49.0,30.02,ENE,68,0.0,0.0,51,0.00,,---,0.08,VWS V14.01,2013-07-25 01:20:00,
2013-07-24 21:25:00,67.4,48.7,30.02,ENE,68,0.0,0.0,51,0.00,,---,0.08,VWS V14.01,2013-07-25 01:25:00,
2013-07-24 21:30:00,67.2,48.5,30.03,ENE,68,0.0,0.0,51,0.00,,---,0.08,VWS V14.01,2013-07-25 01:30:00,
2013-07-24 21:35:00,66.9,48.7,30.03,ENE,68,0.0,0.0,52,0.00,,---,0.08,VWS V14.01,2013-07-25 01:35:00,
2013-07-24 21:41:00,66.7,48.5,30.03,ENE,68,0.0,0.0,52,0.00,,---,0.08,VWS V14.01,2013-07-25 01:41:00,
2013-07-24 21:47:00,66.2,48.6,30.03,ENE,68,0.0,0.0,53,0.00,,---,0.08,VWS V14.01,2013-07-25 01:47:00,
2013-07-24 21:52:00,66.0,48.4,30.03,ENE,68,0.0,0.0,53,0.00,,---,0.08,VWS V14.01,2013-07-25 01:52:00,
2013-07-24 21:57:00,65.4,48.3,30.03,ENE,68,0.0,0.0,54,0.00,,---,0.08,VWS V14.01,2013-07-25 01:57:00,
2013-07-24 22:02:00,65.3,48.2,30.03,ENE,68,0.0,0.0,54,0.00,,---,0.08,VWS V14.01,2013-07-25 02:02:00,
2013-07-24 22:07:00,65.1,48.1,30.04,ENE,68,0.0,0.0,54,0.00,,---,0.08,VWS V14.01,2013-07-25 02:07:00,
2013-07-24 22:12:00,64.9,48.4,30.04,East,90,0.0,0.0,55,0.00,,---,0.08,VWS V14.01,2013-07-25 02:12:00,
2013-07-24 22:16:00,64.7,48.7,30.04,East,90,0.0,0.0,56,0.00,,---,0.08,VWS V14.01,2013-07-25 02:16:00,
2013-07-24 22:21:00,64.5,48.5,30.04,East,90,0.0,0.0,56,0.00,,---,0.08,VWS V14.01,2013-07-25 02:21:00,
2013-07-24 22:26:00,64.2,48.2,30.04,East,90,0.0,0.0,56,0.00,,---,0.08,VWS V14.01,2013-07-25 02:26:00,
2013-07-24 22:32:00,64.2,48.2,30.04,East,90,0.0,0.0,56,0.00,,---,0.08,VWS V14.01,2013-07-25 02:32:00,
2013-07-24 22:37:00,64.0,48.5,30.04,East,90,0.0,0.0,57,0.00,,---,0.08,VWS V14.01,2013-07-25 02:37:00,
2013-07-24 22:42:00,63.6,48.1,30.04,East,90,0.0,0.0,57,0.00,,---,0.08,VWS V14.01,2013-07-25 02:42:00,
2013-07-24 22:47:00,63.3,47.8,30.04,East,90,0.0,0.0,57,0.00,,---,0.08,VWS V14.01,2013-07-25 02:47:00,
2013-07-24 22:52:00,63.1,47.6,30.04,East,90,0.0,0.0,57,0.00,,---,0.08,VWS V14.01,2013-07-25 02:52:00,
2013-07-24 22:57:00,62.7,47.7,30.04,East,90,0.0,0.0,58,0.00,,---,0.08,VWS V14.01,2013-07-25 02:57:00,
2013-07-24 23:02:00,62.4,47.5,30.04,East,90,0.0,0.0,58,0.00,,---,0.08,VWS V14.01,2013-07-25 03:02:00,
2013-07-24 23:08:00,62.0,47.5,30.04,East,90,0.0,0.0,59,0.00,,---,0.08,VWS V14.01,2013-07-25 03:08:00,
2013-07-24 23:13:00,61.8,47.3,30.04,East,90,0.0,0.0,59,0.00,,---,0.08,VWS V14.01,2013-07-25 03:13:00,
2013-07-24 23:18:00,61.5,47.5,30.05,East,90,0.0,0.0,60,0.00,,---,0.08,VWS V14.01,2013-07-25 03:18:00,
2013-07-24 23:24:00,61.3,47.8,30.04,East,90,0.0,0.0,61,0.00,,---,0.08,VWS V14.01,2013-07-25 03:24:00,
2013-07-24 23:29:00,61.1,47.6,30.04,East,90,0.0,0.0,61,0.00,,---,0.08,VWS V14.01,2013-07-25 03:29:00,
2013-07-24 23:34:00,60.9,47.4,30.05,East,90,0.0,0.0,61,0.00,,---,0.08,VWS V14.01,2013-07-25 03:34:00,
2013-07-24 23:39:00,60.9,47.4,30.05,East,90,0.0,0.0,61,0.00,,---,0.08,VWS V14.01,2013-07-25 03:39:00,
2013-07-24 23:44:00,60.8,47.7,30.04,East,90,0.0,0.0,62,0.00,,---,0.08,VWS V14.01,2013-07-25 03:44:00,
2013-07-24 23:49:00,60.6,47.5,30.04,East,90,0.0,0.0,62,0.00,,---,0.08,VWS V14.01,2013-07-25 03:49:00,
2013-07-24 23:54:00,60.6,47.5,30.04,East,90,0.0,0.0,62,0.00,,---,0.08,VWS V14.01,2013-07-25 03:54:00,
2013-07-24 23:59:00,60.8,48.1,30.05,East,90,0.0,0.0,63,0.00,,---,0.08,VWS V14.01,2013-07-25 03:59:00,